Regional Weather Roundup
Issued by NWS Green Bay, WI

Home | Current Version | Previous Version | Graphics & Text | Print | Product List | Glossary Off
Versions: 1 2 3 4 5 6 7 8 9 10 11 12 13 14 15 16 17 18 19 20 21 22 23 24 25 26 27 28 29 30 31 32 33 34 35 36 37 38 39 40 41 42 43 44 45 46 47 48 49 50

000
ASUS43 KGRB 291910
RWRGRB

NORTH-CENTRAL AND NORTHEAST WISCONSIN REGIONAL WEATHER ROUNDUP
NATIONAL WEATHER SERVICE GREEN BAY WI
200 PM CDT TUE JUL 29 2014

WIZ005-009-010>012-018-019-292000-
NORTH CENTRAL WISCONSIN

CITY           SKY/WX    TMP DP  RH WIND       PRES   REMARKS
IRONWOOD       NOT AVBL
MANITOWISH WTR CLOUDY    69  55  60 W8        30.02F
ARBOR VITAE    PTSUNNY   72  55  54 W9        30.02F
EAGLE RIVER    PTSUNNY   71  52  52 NW10G16   30.01F
LAND O LAKES   LGT RAIN  66  54  66 N9        30.03S
RHINELANDER    PTSUNNY   71  55  56 W8        30.03F
PHILLIPS       MOSUNNY   73  58  59 W7        30.03F
ANTIGO         PTSUNNY   72  56  56 NW13      30.02F
TOMAHAWK       MOSUNNY   72  55  54 NW10G18   30.04S
MERRILL        SUNNY     73  56  55 NW7G16    30.03S
$$

WIZ013-073-292000-
NORTHEAST WISCONSIN

CITY           SKY/WX    TMP DP  RH WIND       PRES   REMARKS
IRON MOUNTAIN  NOT AVBL
MARINETTE      PTSUNNY   64  54  68 NW6G37    29.96S
OCONTO         CLOUDY    75  54  47 N7        29.96F
$$

WIZ017-030-035>037-045-292000-
CENTRAL WISCONSIN

CITY           SKY/WX    TMP DP  RH WIND       PRES   REMARKS
MEDFORD        PTSUNNY   72  56  58 W9        30.05F
WAUSAU         MOSUNNY   75  54  47 N12       30.01F
MOSINEE        PTSUNNY   73  54  49 W12G20    30.04F
MARSHFIELD     SUNNY     77  53  43 NW14      30.04F
WISC RAPIDS    MOSUNNY   78  53  41 W13       30.04F
STEVENS POINT  MOSUNNY   73  53  48 NW8G17    30.03F
WAUPACA        PTSUNNY   78  51  38 NW12G17   30.01S
SHAWANO        PTSUNNY   76  55  47 W6        29.99F
CLINTONVILLE   PTSUNNY   75  52  43 NW9       30.00S
$$

WIZ038-039-048-051-292000-
FOX VALLEY

CITY           SKY/WX    TMP DP  RH WIND       PRES   REMARKS
NWS GREEN BAY  MOSUNNY   77  55  46 NW15      29.98F
APPLETON       PTSUNNY   73  54  49 W8        30.01F
OSHKOSH        SUNNY     76  54  46 NW13      30.00F
FOND DU LAC    MOSUNNY   77  53  43 NW13G21   30.00F
$$

WIZ022-050-052-292000-
EAST CENTRAL WISCONSIN

CITY           SKY/WX    TMP DP  RH WIND       PRES   REMARKS
STURGEON BAY   PTSUNNY   70  55  60 W6        29.98F
MANITOWOC      PTSUNNY   75  53  46 NW10G21   29.98F
SHEBOYGAN      SUNNY     75  54  47 NW14      29.99F
$$

LMZ563-521-522-541>543-292000-
LAKESHORE

STATION/POSITION TIME  TEMP    WIND        PRES    VSBY  WAVE
                       AIR SEA DIR/SP/G                  HT/PER
                 (UTC) (F)     (DEG/KT/KT) (MB)    (MI)  (FT/S)
SHEBOYGAN LKSHOR 1900   70      20/  3/  5 1015.6F
KEWAUNEE LKSHORE 1900   65     110/  2/  4 1015.9S
TWO RIVERS CG    1800   70 61                N/A       6   0
NORTHPORT PIER   1900   67      20/  1/  5 1014.6F
N MID LAKE BUOY  1900   58 56  240/  6/  6 1014.2F         1
S GREEN BAY BUOY 1900   70 68  240/  4     1015.7F
SISTER BAY LKSHO 1800   76     270/  5/  5   N/A
STURGEON BAY CG  1800   70 63  310/  7     1015.5      6   1
CHAMBERS ISLAND  1900   68     140/  2/  7 1014.9S
MENOMINEE LKSHOR 1900   63     160/  6/  9 1015.5R
$$



USA.gov is the U.S. government's official web portal to all federal, state and local government web resources and services.